Miscellaneous Local Product
Issued by NWS Hastings, NE

Home | Current Version | Previous Version | Text Only | Print | Product List | Glossary Off
Versions: 1 2 3 4 5 6 7 8 9 10 11 12 13 14 15 16 17 18 19 20 21 22 23 24 25 26 27 28 29 30 31 32 33 34 35 36 37 38 39 40 41 42 43 44 45 46 47 48 49 50

000
AXUS43 KGID 031602
MISGRI

GID CWA HOURLY WEATHER ROUNDUP
NATIONAL WEATHER SERVICE HASTINGS NE
1100 AM CDT MON AUG 03 2015

NOTE: "FAIR" INDICATES FEW OR NO CLOUDS BELOW 12,000 FEET WITH NO
SIGNIFICANT WEATHER AND/OR OBSTRUCTIONS TO VISIBILITY.

...SOUTH CENTRAL NEBRASKA...

CITY           SKY/WX    TMP DP  RH WIND       PRES   REMARKS
GRAND ISLAND   MOSUNNY   76  63  64 E13       30.00F
HASTINGS       MOSUNNY   76  63  64 E12       30.01S
KEARNEY        MOSUNNY   75  63  64 E16       30.01F
ORD            MOSUNNY   76  61  59 SE7       30.00R
YORK           PTSUNNY   73  64  73 E13       30.01S
AURORA         MOSUNNY   74  65  74 E10       30.00F
LEXINGTON      MOSUNNY   77  64  64 E15       30.02S
HOLDREGE       MOSUNNY   75  65  72 E14       30.02S
HEBRON         MOSUNNY   77  67  70 NE10      30.00R

...NEBRASKA PANHANDLE...

CITY           SKY/WX    TMP DP  RH WIND       PRES   REMARKS
CHADRON          N/A     77  61  57 CALM      30.01F
ALLIANCE       PTSUNNY   76  61  59 S12G20    30.04S
SCOTTSBLUFF    MOSUNNY   73  60  63 SE6       30.03F
SIDNEY         PTSUNNY   80  56  43 VRB5      30.06S

...WESTERN AND NORTH CENTRAL NEBRASKA...

CITY           SKY/WX    TMP DP  RH WIND       PRES   REMARKS
VALENTINE      NOT AVBL
AINSWORTH      SUNNY     76  59  55 SE3       30.04S
ONEILL         SUNNY     74  62  64 S5        30.03S
BROKEN BOW     MOSUNNY   76  59  55 SE10G25   30.02F
IMPERIAL       MOSUNNY   80  59  48 SE9       30.02S
NORTH PLATTE   MOSUNNY   75  64  68 SE15      30.02S
MCCOOK         SUNNY     79  68  69 E8        30.00S

...EASTERN NEBRASKA...

CITY           SKY/WX    TMP DP  RH WIND       PRES   REMARKS
NORFOLK        PTSUNNY   71  62  73 VRB7      29.99S
TEKAMAH        CLOUDY    73  65  75 SE5       29.99F
COLUMBUS       CLOUDY    66  57  72 E8G25     29.95F
ALBION         PTSUNNY   69  59  71 CALM      30.01R
OMAHA EPPLEY   CLOUDY    76  62  62 SE7       29.99F
OFFUTT AFB     CLOUDY    75  63  65 E7        29.98F
MILLARD        CLOUDY    74  62  66 E5        29.99F
LINCOLN        CLOUDY    76  61  59 NE8       30.01R
NEBRASKA CITY  PTSUNNY   73  60  62 E9        29.99F
BEATRICE       PTSUNNY   75  64  70 E12G17    29.99S
FALLS CITY     CLOUDY    74  66  76 NE5       29.97R

...NORTHERN KANSAS...

CITY           SKY/WX    TMP DP  RH WIND       PRES   REMARKS
GOODLAND       MOSUNNY   83  64  52 E7        30.03S
HILL CITY      SUNNY     84  66  54 E7        29.98S
NORTON         SUNNY     81  63  54 E6        29.99R
PHILLIPSBURG   SUNNY     84  70  61 E10       29.98R HAZE
SMITH CENTER   SUNNY     81  70  69 NE12      29.99R
HAYS           MOSUNNY   84  66  54 E7        29.96S
RUSSELL        MOSUNNY   85  69  58 NE3       29.94F
CONCORDIA      SUNNY     82  72  71 NE8       29.97R
SALINA         MOSUNNY   87  69  54 VRB5      29.94S HX  91
TOPEKA         SUNNY     85  70  60 S6        29.95S



USA.gov is the U.S. government's official web portal to all federal, state and local government web resources and services.